Retour au catalogue

STARLINK-5439

ActifCommunicationsVLEO
NORAD 54783·PAYLOAD·🇺🇸 United States

Lancé Dec 17, 2022 depuis Cape Canaveral Space Force Station

Loading…

Prochains Passages (prochaines 24 heures)

TLE

FraisSource: CelesTrak SupGP

Époque: Sep 14, 2026, 22:01 UTC

1 54783C 22175AB  26257.91784722  .00039512  00000+0  12707-2 0  2571
2 54783  53.1577 245.7983 0001346  94.1072 319.5742 15.31680672    13

Suivez STARLINK-5439 en temps réel avec AllMySat

Download on the App Store